TimeMST,TemperatureF,Dew PointF,Humidity,Sea Level PressureIn,VisibilityMPH,Wind Direction,Wind SpeedMPH,Gust SpeedMPH,PrecipitationIn,Events,Conditions,WindDirDegrees,DateUTC
12:31 AM,14.0,8.6,79,29.97,2.0,Calm,Calm,-,0.01,Snow,Light Snow,0,2012-12-30 07:31:00
12:47 AM,14.0,8.6,79,29.97,2.0,Calm,Calm,-,0.01,Snow,Light Snow,0,2012-12-30 07:47:00
12:55 AM,14.0,9.0,80,30.15,1.8,Calm,Calm,-,0.01,Snow,Light Snow,0,2012-12-30 07:55:00
1:09 AM,14.0,8.6,79,29.97,2.0,Calm,Calm,-,0.01,Snow,Light Snow,0,2012-12-30 08:09:00
1:23 AM,12.2,8.6,85,29.97,4.0,Calm,Calm,-,0.01,Snow,Light Snow,0,2012-12-30 08:23:00
1:38 AM,12.2,6.8,79,29.98,5.0,Calm,Calm,-,0.01,Snow,Light Snow,0,2012-12-30 08:38:00
1:55 AM,8.1,3.9,83,30.18,8.0,Calm,Calm,-,0.01,,Overcast,0,2012-12-30 08:55:00
2:14 AM,6.8,1.4,79,29.98,4.0,Calm,Calm,-,0.00,Snow,Light Snow,0,2012-12-30 09:14:00
2:38 AM,3.2,-0.4,85,29.99,9.0,Calm,Calm,-,0.00,,Overcast,0,2012-12-30 09:38:00
2:55 AM,1.9,-2.0,83,30.22,7.0,Calm,Calm,-,0.00,,Mostly Cloudy,0,2012-12-30 09:55:00
3:55 AM,3.9,-2.0,76,30.22,10.0,Calm,Calm,-,N/A,,Clear,0,2012-12-30 10:55:00
4:35 AM,1.4,-0.4,92,30.02,10.0,Calm,Calm,-,N/A,,Mostly Cloudy,0,2012-12-30 11:35:00
4:55 AM,1.9,-2.0,83,30.25,10.0,Calm,Calm,-,N/A,,Mostly Cloudy,0,2012-12-30 11:55:00
5:55 AM,3.0,-0.0,87,30.25,8.0,Calm,Calm,-,0.00,,Overcast,0,2012-12-30 12:55:00
6:31 AM,1.4,-2.2,85,30.04,7.0,Calm,Calm,-,0.00,,Overcast,0,2012-12-30 13:31:00
6:55 AM,3.0,-0.9,84,30.26,9.0,Calm,Calm,-,0.00,,Overcast,0,2012-12-30 13:55:00
7:23 AM,3.2,-2.2,78,30.04,10.0,Calm,Calm,-,N/A,,Scattered Clouds,0,2012-12-30 14:23:00
8:55 AM,3.0,-0.9,84,30.29,10.0,Calm,Calm,-,N/A,,Overcast,0,2012-12-30 15:55:00
9:55 AM,5.0,1.0,84,30.30,10.0,Calm,Calm,-,N/A,,Overcast,0,2012-12-30 16:55:00
10:55 AM,9.0,3.9,80,30.30,10.0,Calm,Calm,-,N/A,,Overcast,0,2012-12-30 17:55:00
11:55 AM,15.1,5.0,64,30.27,10.0,Calm,Calm,-,N/A,,Scattered Clouds,0,2012-12-30 18:55:00
12:55 PM,15.1,6.1,68,30.25,10.0,Calm,Calm,-,N/A,,Clear,0,2012-12-30 19:55:00
1:55 PM,18.0,6.1,60,30.24,10.0,Calm,Calm,-,N/A,,Clear,0,2012-12-30 20:55:00
2:55 PM,18.0,6.1,60,30.27,10.0,Calm,Calm,-,N/A,,Clear,0,2012-12-30 21:55:00
3:55 PM,16.0,7.0,68,30.28,10.0,Calm,Calm,-,N/A,,Clear,0,2012-12-30 22:55:00
4:55 PM,5.0,-0.9,76,30.33,10.0,Calm,Calm,-,N/A,,Clear,0,2012-12-30 23:55:00
5:55 PM,7.0,1.0,77,30.34,10.0,Calm,Calm,-,N/A,,Clear,0,2012-12-31 00:55:00
6:55 PM,1.0,-2.9,83,30.38,10.0,NNW,4.6,-,N/A,,Clear,330,2012-12-31 01:55:00
7:55 PM,-0.0,-4.0,83,30.41,10.0,Calm,Calm,-,N/A,,Clear,0,2012-12-31 02:55:00
8:55 PM,-0.0,-5.1,79,30.38,10.0,Calm,Calm,-,N/A,,Clear,0,2012-12-31 03:55:00
9:55 PM,-0.9,-6.0,79,30.40,10.0,Calm,Calm,-,N/A,,Clear,0,2012-12-31 04:55:00
10:55 PM,-0.0,-5.1,79,30.37,10.0,Calm,Calm,-,N/A,,Clear,0,2012-12-31 05:55:00
11:55 PM,-0.9,-6.0,79,30.36,9.0,WNW,3.5,-,N/A,,Clear,300,2012-12-31 06:55:00